Weather in Pilawa

Poland     51°57′32″N   21°31′48″E
temp.,
°C
wind,
m/s
gust,
m/s
humid.,
%
clouds,
%
prec.,
mm/h
press.,
hPa
HPBL,
m
8 march, mon
mon801:00−2wnw2776100 1.3 1015253
04:00−4nw379567 0.1 1015186
07:00−4nw4108538 0.1 1016385
10:00+1nw58650 0.0 10191253
13:00+2nw685721 0.2 10191625
16:00+2nw4763100 0.3 10191250
19:00−2nw397899 0.4 1021248
22:00−3nnw38830 0.0 1022237
9 march, tue
tue901:00−4nnw35880 0.0 1023178
04:00−5nnw24892 0.0 1022169
07:00−4n238246 0.0 1023275
10:00−1nne1261100 0.0 1024766
13:00+1ne114779 0.0 10241342
16:000ene114776 0.0 10221270
19:00−3ese236760 0.0 102347
22:00−3se236794 0.0 102484
10 march, wed
wed1001:00−3se236980 0.0 102362
04:00−4se227116 0.0 102332
07:00−3se22708 0.0 1023123
10:00+1se11530 0.0 1024950
13:00+2se114419 0.0 10241420
16:00+2ene114676 0.0 10231384
19:00−2ese236165 0.0 102430
22:00−2se22610 0.0 102529
11 march, thu
thu1101:00−3sse22630 0.0 102535
04:00−3sse23630 0.0 102353
07:00−2sse36590 0.0 1023230
10:00+2s685033 0.0 10211011
13:00+3sse694767 0.0 1018935
16:00+3sse61155100 0.0 1014793
19:00+2sse61360100 0.2 1013649
22:000s81498100 1.8 1010636
12 march, fri
fri1201:00+2s71395100 3.0 1007506
04:00+3ssw51392100 1.3 1006503
07:00+4wsw51395100 2.8 1007502
10:00+7w8128091 0.2 10081196
13:00+7w7117693 0.9 10101329
16:00+6w497364 0.2 1011737
19:00+3sw348432 0.2 101254
22:00+2ssw34863 0.0 101377